Overview Statistics Trail Chart Weather Telemetry Raw packets
 

This is the latest recevied weather packets stored in our database for station/object KA1BMF-13. If no packets are shown the sender has not sent any weather packets the latest 10 day(s).

<< 5 6 7 8 9 10 11 >>
Time Temp. Humidity Pressure Rain* Wind** Luminosity Snow
1788550819 27.22° C 61% 1010 hPa 0 mm - 555 W/m² -
1788550219 26.67° C 61% 1010 hPa 0 mm - 587 W/m² -
1788549620 26.11° C 67% 1010.1 hPa 0 mm - 586 W/m² -
1788549017 27.22° C 65% 1010.2 hPa 0 mm - 122 W/m² -
1788548417 27.78° C 58% 1010.2 hPa 0 mm - 421 W/m² -
1788547820 27.78° C 58% 1010.2 hPa 0 mm - 740 W/m² -
1788547220 27.78° C 57% 1010.2 hPa 0 mm - 744 W/m² -
1788546617 27.78° C 57% 1010.2 hPa 0 mm - 809 W/m² -
1788546018 26.67° C 58% 1010.2 hPa 0 mm - 825 W/m² -
1788545418 26.67° C 59% 1010.2 hPa 0 mm - 577 W/m² -
1788544818 26.67° C 61% 1010.3 hPa 0 mm - 360 W/m² -
1788544218 27.22° C 59% 1010.2 hPa 0 mm - 513 W/m² -
1788543618 26.67° C 62% 1010.1 hPa 0 mm - 833 W/m² -
1788543019 26.11° C 60% 1010.2 hPa 0 mm - 457 W/m² -
1788542419 26.67° C 60% 1010.1 hPa 0 mm - 607 W/m² -
1788541818 26.67° C 63% 1010.2 hPa 0 mm - 822 W/m² -
1788541216 26.67° C 61% 1010.3 hPa 0 mm - 859 W/m² -
1788540619 26.11° C 62% 1010.4 hPa 0 mm - 819 W/m² -
1788540019 26.11° C 64% 1010.4 hPa 0 mm - 824 W/m² -
1788539417 26.11° C 63% 1010.3 hPa 0 mm - 828 W/m² -
1788538816 26.11° C 66% 1010.3 hPa 0 mm - 819 W/m² -
1788538235 26.11° C 65% 1010.5 hPa 0 mm - 828 W/m² -
1788537620 25.56° C 66% 1010.6 hPa 0 mm - 799 W/m² -
1788537018 25.56° C 65% 1010.7 hPa 0 mm - 788 W/m² -
1788536417 25.56° C 67% 1010.9 hPa 0 mm - 775 W/m² -

* Rain latest hour (hover to see other rain measurements)
** Current wind speed in m/s (hover to see current wind gust speed)